Weather in Brodki

Russia / Lipetsk Oblast     52°49′28″N   38°27′38″E
temp.,
°C
wind,
m/s
gust,
m/s
humid.,
%
clouds,
%
prec.,
mm/h
press.,
hPa
HPBL,
m
8 march, mon
mon800:00−3w51582100 0.7 1002635
03:00−6wsw5128699 0.7 1003276
06:00−6wsw5138493 0.1 1002286
09:00−6w6139152 0.1 1002480
12:00−4w7118440 0.0 10041003
15:00−3wnw688469 0.1 10051060
18:00−6wnw339095 0.1 100739
21:00−10nnw239070 0.1 100921
9 march, tue
tue900:00−12nnw239053 0.0 101021
03:00−13nnw339331 0.0 101131
06:00−13nnw369592 0.0 1012118
09:00−12n479396 0.0 1014258
12:00−11nnw469060 0.0 1016397
15:00−10nnw478872 0.0 1017560
18:00−14nw349291 0.0 101969
21:00−15nw349568 0.0 102177
10 march, wed
wed1000:00−17nnw469539 0.0 1022108
03:00−19nw349765 0.0 102453
06:00−21nw34980 0.0 102676
09:00−20nnw47940 0.0 1027252
12:00−18nnw36900 0.0 1028337
15:00−16nnw358726 0.0 1028418
18:00−19nnw339427 0.0 102924
21:00−22n339514 0.0 103123
11 march, thu
thu1100:00−23nne23920 0.0 103220
03:00−24n12910 0.0 103420
06:00−24n12901 0.0 103420
09:00−20nnw22870 0.0 103568
12:00−16n22770 0.0 1035235
15:00−14nw11750 0.0 1034306
18:00−18nw11870 0.0 103420
21:00−20nne00850 0.0 103520
12 march, fri
fri1200:00−20sse11850 0.0 103520
03:00−20sse22890 0.0 103420
06:00−20s23950 0.0 103420
09:00−16s36910 0.0 1034180
12:00−11s58800 0.0 1034526
15:00−9s59790 0.0 1032662
18:00−11sse498267 0.0 1031175
21:00−12s5137983 0.0 1031272